logo tempoitalia

Diretta Meteo Pipestone, Stati Uniti (USA)lunedì 31 agosto ore 01:35

Mappa
Sereno 22 °C Sereno 24 Ore: T.min 20 T.max 33
Ponente Sud/Sud-Ovest Km/h 7.4 Punto di rugiada: 22 °C Umidità: 100% Visibilità: 10 Km
Il sole sorge alle: 06:47 Il sole tramonta alle: 20:03
31 Agosto 2026 01:35 tempo osservato: Sereno Sereno 22 100 1008 vento: Nord S/SO 7.4
31 Agosto 2026 01:15 tempo osservato: Sereno Sereno 22 100 1008 vento: Nord S 9.3
31 Agosto 2026 00:55 tempo osservato: Sereno Sereno 22 100 1008 vento: Nord S 7.4
31 Agosto 2026 00:35 tempo osservato: Sereno Sereno 22 100 1008 vento: Nord S 9.3
31 Agosto 2026 00:15 tempo osservato: Sereno Sereno 22 100 1008 vento: Nord S/SO 7.4
30 Agosto 2026 23:55 tempo osservato: Sereno Sereno 23 100 1008 vento: Nord N 5.5
30 Agosto 2026 23:35 tempo osservato: Sereno Sereno 23 100 1008 vento: Nord S 7.4
30 Agosto 2026 23:15 tempo osservato: Sereno Sereno 24 100 1008 vento: Nord S/SO 9.3
30 Agosto 2026 22:55 tempo osservato: Sereno Sereno 24 100 1008 vento: Nord S/SO 11.1
30 Agosto 2026 22:35 tempo osservato: Sereno Sereno 24 100 1008 vento: Nord S/SO 9.3
30 Agosto 2026 22:15 tempo osservato: Sereno Sereno 25 100 1008 vento: Nord S/SO 13
30 Agosto 2026 21:55 tempo osservato: Sereno Sereno 25 100 1008 vento: Nord S 13
30 Agosto 2026 21:35 tempo osservato: Sereno Sereno 25 100 1008 vento: Nord S 13
30 Agosto 2026 21:15 tempo osservato: Sereno Sereno 26 100 1008 vento: Nord S 14.8
30 Agosto 2026 20:55 tempo osservato: Sereno Sereno 26 100 1007 vento: Nord S 14.8
30 Agosto 2026 20:35 tempo osservato: Sereno Sereno 26 100 1007 vento: Nord S 13
30 Agosto 2026 20:15 tempo osservato: Poco Nuvoloso Poco Nuvoloso 26 100 1007 vento: Nord S 13
30 Agosto 2026 19:55 tempo osservato: Sereno Sereno 27 100 1007 vento: Nord S 11.1
30 Agosto 2026 19:35 tempo osservato: Sereno Sereno 27 94 1007 vento: Nord S 9.3
30 Agosto 2026 19:15 tempo osservato: Sereno Sereno 28 74 1007 vento: Nord S/SE 11.1
30 Agosto 2026 18:55 tempo osservato: Sereno Sereno 30 66 1007 vento: Nord S 14.8
30 Agosto 2026 18:35 tempo osservato: Sereno Sereno 31 66 1007 vento: Nord S 13
30 Agosto 2026 18:15 tempo osservato: Sereno Sereno 31 70 1007 vento: Nord S 13
30 Agosto 2026 17:55 tempo osservato: Sereno Sereno 31 70 1007 vento: Nord S 11.1
30 Agosto 2026 17:35 tempo osservato: Sereno Sereno 31 74 1007 vento: Nord S 7.4
30 Agosto 2026 17:15 tempo osservato: Sereno Sereno 31 66 1007 vento: Nord S 11.1
30 Agosto 2026 16:55 tempo osservato: Sereno Sereno 32 62 1007 vento: Nord S 13
30 Agosto 2026 16:35 tempo osservato: Sereno Sereno 33 62 1007 vento: Nord S 13
30 Agosto 2026 16:15 tempo osservato: Poco Nuvoloso Poco Nuvoloso 33 62 1007 vento: Nord S/SO 11.1
30 Agosto 2026 15:55 tempo osservato: Poco Nuvoloso Poco Nuvoloso 32 59 1007 vento: Nord S 13
30 Agosto 2026 15:35 tempo osservato: Sereno Sereno 33 59 1007 vento: Nord S 13
30 Agosto 2026 15:15 tempo osservato: Sereno Sereno 33 59 1007 vento: Nord S 14.8
30 Agosto 2026 14:55 tempo osservato: Sereno Sereno 33 62 1007 vento: Nord S 11.1
30 Agosto 2026 14:35 tempo osservato: Sereno Sereno 33 66 1007 vento: Nord S 13
30 Agosto 2026 14:15 tempo osservato: Sereno Sereno 32 74 1007 vento: Nord S 13
30 Agosto 2026 13:55 tempo osservato: Sereno Sereno 32 70 1007 vento: Nord S/SE 13
30 Agosto 2026 13:35 tempo osservato: Sereno Sereno 32 74 1007 vento: Nord S 11.1
30 Agosto 2026 13:15 tempo osservato: Sereno Sereno 32 74 1008 vento: Nord S 9.3
30 Agosto 2026 12:55 tempo osservato: Sereno Sereno 31 79 1008 vento: Nord S/SO 13
30 Agosto 2026 12:35 tempo osservato: Sereno Sereno 31 79 1007 vento: Nord S/SE 11.1
30 Agosto 2026 12:15 tempo osservato: Sereno Sereno 31 84 1008 vento: Nord S 7.4
30 Agosto 2026 11:55 tempo osservato: Sereno Sereno 30 89 1008 vento: Nord SE 11.1
30 Agosto 2026 11:35 tempo osservato: Sereno Sereno 30 89 1008 vento: Nord S 9.3
30 Agosto 2026 11:15 tempo osservato: Sereno Sereno 29 100 1008 vento: Nord N 5.5
30 Agosto 2026 10:55 tempo osservato: Sereno Sereno 28 100 1008 vento: Nord N 7.4
30 Agosto 2026 10:35 tempo osservato: Sereno Sereno 27 100 1008 vento: Nord S 9.3
30 Agosto 2026 10:15 tempo osservato: Poco Nuvoloso Poco Nuvoloso 26 100 1008 vento: Nord N 5.5
30 Agosto 2026 09:55 tempo osservato: Poco Nuvoloso Poco Nuvoloso 25 100 1008 vento: Nord N 0
30 Agosto 2026 09:35 tempo osservato: Nuvoloso Nuvoloso 25 100 1008 vento: Nord N 0
30 Agosto 2026 09:15 tempo osservato: Molto Nuvoloso Molto Nuvoloso 24 100 1008 vento: Nord N 5.5
30 Agosto 2026 08:55 tempo osservato: Molto Nuvoloso Molto Nuvoloso 23 100 1008 vento: Nord SE 7.4
30 Agosto 2026 08:35 tempo osservato: Molto Nuvoloso Molto Nuvoloso 23 100 1008 vento: Nord S/SE 11.1
30 Agosto 2026 08:15 tempo osservato: Molto Nuvoloso Molto Nuvoloso 22 100 1008 vento: Nord N 5.5
30 Agosto 2026 07:55 tempo osservato: Sereno Sereno 21 100 1008 vento: Nord E 7.4
30 Agosto 2026 07:35 tempo osservato: Poco Nuvoloso Poco Nuvoloso 21 100 1008 vento: Nord NE 7.4
30 Agosto 2026 07:15 tempo osservato: Nuvoloso Nuvoloso 20 100 1008 vento: Nord N 5.5
30 Agosto 2026 06:55 tempo osservato: Molto Nuvoloso Molto Nuvoloso 21 100 1008 vento: Nord E/SE 9.3
30 Agosto 2026 06:35 tempo osservato: Coperto Coperto 21 100 1008 vento: Nord N 0
30 Agosto 2026 06:15 tempo osservato: Molto Nuvoloso Molto Nuvoloso 21 100 1008 vento: Nord N 5.5
30 Agosto 2026 05:55 tempo osservato: Nuvoloso Nuvoloso 21 100 1007 vento: Nord N 5.5
30 Agosto 2026 05:35 tempo osservato: Coperto Coperto 21 100 1008 vento: Nord N 5.5
30 Agosto 2026 05:15 tempo osservato: Coperto Coperto 21 100 1008 vento: Nord SE 7.4
30 Agosto 2026 04:55 tempo osservato: Molto Nuvoloso Molto Nuvoloso 21 100 1008 vento: Nord SE 7.4
30 Agosto 2026 04:35 tempo osservato: Molto Nuvoloso Molto Nuvoloso 21 100 1008 vento: Nord SE 9.3
30 Agosto 2026 04:15 tempo osservato: Coperto Coperto 21 100 1008 vento: Nord SE 9.3
30 Agosto 2026 03:55 tempo osservato: Coperto Coperto 21 100 1008 vento: Nord SE 9.3
30 Agosto 2026 03:35 tempo osservato: Molto Nuvoloso Molto Nuvoloso 21 100 1008 vento: Nord SE 9.3
30 Agosto 2026 03:15 tempo osservato: Nuvoloso Nuvoloso 21 100 1008 vento: Nord SE 7.4
30 Agosto 2026 02:55 tempo osservato: Sereno Sereno 21 100 1008 vento: Nord N 5.5
30 Agosto 2026 02:35 tempo osservato: Sereno Sereno 21 100 1008 vento: Nord E/SE 11.1
30 Agosto 2026 02:15 tempo osservato: Sereno Sereno 21 100 1008 vento: Nord E/SE 9.3
30 Agosto 2026 01:55 tempo osservato: Sereno Sereno 21 100 1008 vento: Nord E 7.4
30 Agosto 2026 01:35 tempo osservato: Sereno Sereno 22 100 1008 vento: Nord E/SE 9.3